Rechercher aéroport 
image banner adimage banner adimage banner ad
image banner ad

11CN - Shasta Rgnl Medical Center

Situé à Redding, United States

ICAO - 11CN, IATA -

Données fournies par Airmate  

Information générale

Coordonnées: N40°35'8" W122°23'16"
Élévation : 622 feet MSL.
 
Voir autres Aéroports à California

Données opérationnelles

Special qualification required
Heure actuelle UTC:
Heure actuelle locale:
Météo à : KRDD - Redding Muni ( 12 km )
METAR: KRDD 240953Z AUTO 17024G31KT 5SM RA BKN012 OVC017 13/11 A2964 RMK AO2 PK WND 19031/0946 SLP033 P0019 T01280111
TAF: KRDD 240536Z 2406/2506 25008G18KT P6SM OVC019 FM240800 18018G25KT 3SM RA OVC025 FM241300 18023G31KT 2SM -RA OVC007 FM241900 18015G22KT 6SM -RA OVC007 FM242200 19014G21KT 2SM -RA BR OVC015
Voir NOTAMs / SUP AIP / TFR affectant cet aéroport [VIEW]
Fréquences de communication: [VIEW]

Pistes:

Coordonnées de l'aéroport

Adresse: Redding United States

Vue satellite de 11CN